Theta_e
316 317 317 318 319 319 319 319 318 317 317 318 319 320 321 321 321 320 319 320 319 319 318 318 317 315 314 311 312 314 313 312 309 305 304 301 298 298 299 300 301 302
315 316 317 317 317 318 318 319 318 317 317 318 318 319 319 320 321 320 319 319 319 319 318 318 316 315 314 313 315 316 316 316 314 308 304 302 299 297 298 299 299 299
315 316 317 316 316 316 317 317 317 316 316 317 317 318 318 319 320 320 319 319 319 319 318 317 315 314 314 315 316 317 317 318 317 313 309 308 305 301 297 297 298 298
314 316 316 315 315 315 316 317 317 317 317 317 318 318 318 318 319 320 319 318 318 318 318 317 316 315 315 316 316 316 317 317 317 316 315 314 314 309 301 296 297 297
313 314 315 315 314 313 314 316 318 318 318 318 318 318 318 318 318 319 319 319 319 318 318 317 316 316 316 317 317 316 316 317 317 317 317 317 317 315 308 298 296 297
313 314 315 315 313 312 313 315 316 317 317 317 317 317 318 318 318 318 318 319 319 318 318 318 317 317 317 317 317 317 316 317 317 316 317 317 316 317 314 304 296 296
310 311 313 315 314 312 313 314 315 316 315 315 317 317 317 317 318 318 318 319 319 318 319 319 318 317 317 317 317 317 317 317 317 316 316 317 317 317 317 311 301 296
308 309 310 312 313 313 312 313 314 315 314 314 315 316 317 317 317 317 318 319 319 319 319 319 318 318 318 317 317 317 318 317 317 317 316 317 317 316 317 316 308 298
306 308 309 310 311 312 312 312 313 313 313 313 313 314 316 317 316 316 317 318 318 318 319 319 318 318 317 318 317 317 318 318 316 317 317 317 317 316 316 317 313 301
304 306 309 310 310 312 313 313 313 313 312 312 313 313 315 317 316 316 317 318 318 317 318 319 318 318 318 318 318 317 318 318 316 316 317 317 316 316 315 316 316 307
303 304 308 311 310 310 312 313 313 313 313 313 313 313 314 315 316 317 317 318 318 318 318 318 318 318 318 317 317 317 318 317 316 315 317 317 316 316 316 315 317 314
301 302 306 310 312 310 311 312 313 313 314 313 314 314 314 313 314 315 317 318 317 318 318 319 318 317 318 318 317 318 317 317 317 317 317 317 317 316 316 316 316 317
299 301 303 307 311 311 310 311 313 313 313 313 313 314 314 314 314 313 314 315 316 317 318 318 318 318 317 316 316 317 318 317 317 318 318 317 317 316 316 316 315 316
299 299 301 304 309 311 311 310 312 313 313 312 313 314 314 314 315 314 313 313 313 315 317 318 318 318 317 316 315 316 318 317 317 318 319 318 317 316 316 316 315 316
299 299 300 302 306 310 311 310 311 311 311 311 312 313 313 313 313 313 313 313 313 312 314 316 317 317 315 315 315 317 318 318 318 319 319 318 317 316 316 315 315 315
300 299 300 302 303 307 311 311 310 310 311 311 312 311 312 313 314 313 312 312 313 313 312 313 314 316 316 315 315 317 318 318 318 319 318 318 317 316 316 315 315 315
300 298 299 302 303 304 309 311 311 311 311 311 311 311 311 311 313 314 312 311 312 313 314 313 312 314 317 316 315 317 318 318 319 320 319 318 317 316 315 315 314 315
300 298 298 303 304 303 306 309 311 311 311 310 311 311 311 311 312 312 312 312 312 312 313 314 313 313 314 316 317 318 319 319 320 320 318 318 318 317 315 315 314 314
299 297 298 303 305 303 304 307 310 311 311 311 310 310 310 309 309 309 309 311 312 312 313 314 314 314 314 314 317 318 318 319 319 319 318 318 318 317 316 315 314 314
298 297 298 303 306 304 303 305 309 311 312 311 310 309 309 308 308 307 307 308 310 311 312 313 314 315 315 316 317 317 317 318 319 320 319 319 318 317 316 315 314 314
298 297 298 302 305 305 303 304 307 310 311 312 309 308 308 308 308 307 307 308 309 310 310 311 313 314 315 316 317 318 318 318 318 319 318 317 318 318 317 315 314 314
298 297 298 301 304 305 304 304 306 309 311 311 310 308 308 308 308 308 307 307 308 310 310 310 311 312 312 313 314 316 316 316 317 317 316 316 316 317 317 316 315 314
297 297 297 300 303 304 305 304 306 309 311 311 311 310 309 309 309 309 308 307 307 308 310 310 310 310 310 311 312 313 314 315 315 316 316 316 316 316 316 315 314 313
296 296 297 299 301 303 305 305 306 308 310 311 311 310 310 310 309 310 310 309 308 307 308 308 309 310 310 310 311 312 312 313 313 314 314 315 315 315 315 314 313 312
296 296 296 298 300 302 304 305 307 308 310 310 310 311 310 309 309 309 310 310 309 308 308 308 308 309 310 310 310 311 311 311 312 312 312 313 313 313 313 312 312 312
294 295 296 297 299 301 303 305 307 308 309 310 310 310 310 309 309 309 309 310 310 309 309 309 308 308 309 310 310 310 311 311 311 311 311 311 311 312 312 311 311 312
Wind_Speed
56 58 61 59 55 55 54 53 54 55 55 58 60 60 61 62 60 54 50 51 53 53 51 49 47 45 45 42 38 36 35 34 34 34 33 33 34 34 35 35 35 35
55 56 58 60 58 57 56 55 54 54 55 56 58 59 59 62 64 60 52 49 53 54 51 48 47 46 46 44 39 34 33 33 34 35 33 33 33 33 34 35 34 34
53 57 57 58 58 57 57 57 55 55 55 55 56 57 58 60 63 63 57 52 51 51 49 47 47 47 46 43 38 35 35 36 36 35 33 31 31 32 33 34 34 35
48 53 54 56 56 55 54 54 55 55 55 55 55 56 57 58 59 62 60 57 53 50 48 48 48 48 46 42 38 37 38 37 35 34 33 32 31 30 32 33 35 36
44 49 51 54 56 55 54 53 53 54 53 54 54 54 56 58 59 59 58 59 57 53 50 49 50 48 46 42 40 39 39 39 36 34 33 34 32 31 31 33 36 37
36 45 47 50 54 55 55 55 55 54 53 53 53 54 55 56 60 61 58 59 62 58 55 53 52 50 47 44 40 39 40 40 38 36 34 34 33 33 33 33 36 38
28 34 39 45 50 51 53 55 54 53 53 52 51 53 55 55 57 59 58 58 62 61 58 56 55 54 51 47 43 41 42 42 40 38 37 36 35 34 34 35 36 38
28 29 32 38 45 50 52 53 54 53 53 53 52 53 55 56 57 57 56 58 62 64 61 58 57 56 53 50 47 46 46 46 43 41 40 39 37 35 34 35 37 38
30 31 31 33 40 48 53 54 55 54 52 53 54 54 54 56 58 57 57 60 63 66 64 61 59 58 56 52 49 49 50 47 42 41 43 42 40 39 37 36 38 39
28 31 32 33 37 44 51 54 55 55 53 53 52 53 53 54 55 57 58 61 63 64 65 65 62 59 58 55 51 51 51 47 42 41 43 44 41 39 39 39 39 40
27 29 32 34 36 41 48 51 52 53 53 53 52 51 53 53 54 56 58 61 65 66 65 65 63 60 60 57 52 52 53 48 44 43 44 46 44 40 38 39 40 40
32 30 33 35 36 39 45 49 50 52 53 52 52 52 52 53 52 53 55 59 64 67 66 64 62 59 59 59 54 53 55 51 48 48 48 49 48 42 39 39 40 41
40 34 32 34 36 37 43 48 50 52 53 53 53 52 52 53 53 52 53 55 59 63 64 63 61 57 57 60 58 55 56 54 53 53 51 50 47 42 40 39 39 41
45 41 33 32 36 36 41 47 50 52 53 53 53 53 55 56 54 53 52 53 55 59 61 62 63 61 60 62 63 63 60 57 57 57 53 51 49 45 42 40 39 40
46 46 38 30 34 37 40 44 48 51 52 52 52 54 55 57 57 54 53 54 54 55 58 62 63 65 64 62 64 68 66 58 56 58 56 53 52 48 43 40 39 40
45 49 43 30 31 37 42 44 44 48 51 51 51 51 52 53 55 54 53 54 56 57 58 60 62 65 65 63 64 68 67 59 54 56 58 57 54 51 47 42 41 41
44 49 47 32 29 34 40 44 43 45 48 49 50 50 50 51 53 55 53 52 55 59 61 60 60 62 62 61 63 65 65 62 56 54 57 58 56 53 49 43 42 42
43 48 48 33 27 31 36 41 43 44 46 48 49 49 49 49 49 53 56 53 51 56 61 62 60 59 58 57 60 61 61 62 59 53 54 58 59 56 51 45 43 44
42 47 46 32 26 30 33 38 42 43 44 46 49 48 47 47 47 49 54 54 52 53 58 62 61 60 59 58 58 59 58 60 62 58 56 59 61 60 57 51 48 47
40 45 43 29 24 29 32 37 40 43 44 44 46 46 46 47 47 47 49 52 52 52 54 59 60 60 62 63 62 60 56 59 64 62 58 58 59 60 59 54 50 50
38 43 41 25 20 25 31 37 40 43 45 45 45 45 45 45 45 45 47 50 51 50 50 54 56 55 58 61 61 59 57 59 61 57 53 54 56 59 59 55 51 51
36 41 38 24 16 22 28 36 41 43 45 46 45 43 43 44 44 43 44 47 49 50 51 53 54 52 53 53 54 55 56 57 56 53 53 57 58 57 59 58 55 53
34 38 36 24 15 19 26 34 41 43 44 45 45 43 42 43 44 44 42 42 45 49 52 54 54 52 51 52 53 55 56 55 54 54 56 60 60 58 60 60 56 53
33 36 34 24 16 18 23 32 39 42 43 44 44 42 40 40 42 44 44 43 44 46 49 52 53 51 51 53 53 53 54 54 54 55 57 59 60 59 60 58 54 52
33 35 32 25 17 18 21 28 36 40 41 42 42 41 38 37 39 42 46 47 46 45 46 49 51 52 53 54 53 53 54 55 55 57 58 59 59 59 58 55 53 54
33 33 32 26 17 16 21 26 32 36 38 40 41 41 39 38 38 41 45 48 48 47 48 50 51 52 53 54 54 54 55 56 57 58 58 59 60 60 58 55 55 56
Wind_Direction
237 228 225 223 220 219 217 217 216 213 211 213 214 215 217 217 214 213 217 219 215 212 212 212 208 207 209 208 206 206 206 208 211 213 212 211 210 213 215 215 215 217
240 232 225 223 223 223 221 220 219 216 213 214 215 216 217 219 218 215 213 217 219 214 210 210 208 206 208 206 203 205 207 207 210 212 213 213 212 214 216 214 211 211
242 234 225 221 222 223 222 222 222 221 217 216 217 218 217 217 219 219 215 213 215 216 212 208 207 207 205 202 200 203 207 207 208 209 209 211 212 212 214 213 210 209
243 237 226 222 222 223 222 220 220 221 219 218 219 220 220 218 219 221 222 218 212 211 213 209 205 204 201 198 199 202 205 205 205 208 208 209 212 212 213 212 209 209
243 241 231 223 222 223 223 221 219 219 219 219 220 220 221 221 221 221 222 224 217 207 209 209 202 201 199 196 199 203 205 205 204 208 210 210 213 214 213 212 210 209
250 244 237 226 222 222 223 223 222 221 220 220 221 221 222 222 223 222 221 226 223 210 206 207 202 199 200 200 203 207 208 207 206 207 210 212 214 214 213 212 211 210
276 257 244 232 224 223 224 224 223 223 221 220 220 221 223 222 222 223 223 227 227 217 208 207 203 200 201 203 207 210 208 207 208 207 208 210 212 214 214 213 212 212
296 279 259 242 230 226 226 225 224 224 223 222 221 221 223 225 225 226 227 228 228 223 213 207 205 202 201 203 208 211 209 207 210 210 207 207 209 214 217 216 213 212
300 293 274 254 239 229 225 225 225 225 224 223 223 223 223 225 226 227 230 228 225 223 218 211 207 204 203 206 211 212 209 208 212 214 211 208 207 212 219 222 216 211
305 302 284 261 248 236 226 223 223 223 226 226 224 223 223 224 225 225 228 228 226 224 220 215 211 207 205 208 213 211 209 211 214 216 215 211 209 211 218 225 222 213
317 309 290 263 251 242 231 225 223 222 224 226 226 225 224 223 223 223 224 227 228 227 224 219 214 211 209 209 211 210 210 214 216 215 214 212 212 215 216 222 226 219
330 319 296 267 251 244 235 229 227 225 225 227 229 229 228 226 224 224 224 224 225 226 226 224 218 213 212 212 211 212 213 217 218 217 216 212 212 213 213 217 226 225
332 328 305 274 255 245 237 231 229 228 228 230 231 231 230 227 224 225 227 227 225 223 224 225 221 216 216 217 215 215 217 219 221 221 219 214 212 213 213 215 223 227
326 330 316 281 260 248 237 232 229 228 229 230 232 232 231 228 226 225 227 229 229 227 226 226 223 218 218 221 220 217 218 221 223 223 219 215 215 215 214 214 218 226
319 325 320 288 262 249 237 232 231 230 231 231 230 231 229 229 229 228 226 227 228 230 229 228 225 219 217 220 220 215 216 221 224 223 220 215 214 214 216 216 217 222
312 320 321 297 265 250 236 231 232 231 231 230 229 230 229 227 226 226 228 228 228 229 229 227 225 222 219 219 219 217 217 220 223 223 222 218 214 212 214 216 216 219
308 316 321 303 268 254 239 230 230 231 230 230 230 230 230 228 225 225 227 229 229 229 228 226 225 224 222 221 221 219 218 220 222 224 224 222 219 215 214 214 214 217
306 313 319 304 267 255 244 233 231 229 229 230 229 228 228 226 226 225 223 223 226 229 228 227 226 225 224 223 222 222 222 222 223 225 226 225 221 218 216 216 215 215
305 311 316 304 264 252 247 237 232 229 228 227 226 227 228 226 227 228 225 221 222 226 228 228 228 226 224 224 223 223 225 226 223 223 227 228 223 217 216 218 217 216
303 308 314 302 263 251 246 237 231 228 228 228 226 225 225 225 226 227 228 227 224 225 227 228 229 228 225 224 223 223 227 229 224 222 226 228 224 220 217 217 217 217
300 306 314 304 262 249 243 237 232 228 227 228 226 225 224 225 226 226 227 228 227 227 230 229 229 229 227 225 222 221 224 224 221 221 226 229 227 223 221 220 221 222
296 304 313 309 267 246 240 236 233 229 228 227 226 226 225 225 227 228 227 226 226 229 230 229 229 230 230 231 228 224 222 220 219 224 230 230 227 226 224 224 224 224
293 302 313 313 278 248 238 234 232 229 228 227 225 225 225 225 227 229 229 228 227 227 227 228 230 231 231 233 232 228 224 222 223 225 226 225 225 226 226 223 222 222
289 298 312 316 289 257 240 232 231 229 227 227 227 225 226 227 227 229 230 231 230 228 227 229 231 231 229 228 227 226 224 224 224 223 223 223 223 223 222 220 220 221
285 293 308 317 300 268 249 234 230 229 228 229 229 228 229 230 229 228 229 231 232 232 231 230 230 231 230 227 226 226 226 226 225 223 221 220 220 219 218 218 220 218
281 286 299 313 308 274 255 240 230 229 229 230 229 230 231 231 231 230 229 229 230 231 232 232 231 231 230 229 228 228 228 226 223 221 219 218 218 217 217 217 216 214